Search the data

BODC Cruise Metadata Report for FS Meteor cruise MT36

Introduction

This report collates information from the BODC cruise inventory and oceanographic databases. It presents

Cruise Inventory Information

Long name FS Meteor cruise MT36
Short name MT36
Objectives and Narrative The aims were to study the physical, biological and chemical processes involved in upwelling off the NW African Coast with particular emphasis on the measurement of onshore/offshore and longshore water movements and the realtionships of phytoplankton, zooplankton and micronekton distribution to them.
Part of a 2-ship study with RRS Discovery.
Ship FS Meteor
Departure Port
Departure Date 1975-01-14
Arrival Port
Arrival Date 1975-03-03
Principal Scientist(s)
Responsible Organisation University of Strathclyde, Department of Physics
Associated Project(s) UPWELLING75
IHB Sea Areas Visited North East Atlantic Ocean (limit 40W)
Marsden Squares Visited
Work Area Description
Work Area Bounding Polygon
Southern Limit unknown
Northern Limit unknown
Western Limit unknown
Eastern Limit unknown

Cruise Inventory Datasets

No information on datasets is currently available for this cruise

Cruise Inventory Mooring/Buoy Operations

No information on datasets is currently available

Summary of BODC Data Holdings for the Cruise

National Oceanographic Database

Summary

# Series Instrument Description Parameters
86 CTD/STD cast Salinity of the water column
Temperature of the water column
Vertical spatial coordinates
1 Unspecified Instrumentation Date and time
Wind strength and direction

Note: Parameter terms are taken from the BODC Parameter Discovery Vocabulary XML (SKOS)

Full List

BODC Reference Instrument Description Date/Time Location  
38175 Unspecified Instrumentation 1975-01-27 00:00Z to 1975-03-03 17:00Z 21° 16' N to 25° 45' N; 18° 42' W to 15° 31' W Click for more
84435 CTD/STD cast 1975-01-28 06:10Z 21° 25' N, 18° 35' W Click for more
84447 CTD/STD cast 1975-01-28 18:48Z 21° 28' N, 18° 10' W Click for more
84459 CTD/STD cast 1975-01-28 23:57Z 21° 25' N, 17° 54' W Click for more
84460 CTD/STD cast 1975-01-29 05:10Z 21° 22' N, 17° 40' W Click for more
84472 CTD/STD cast 1975-01-29 17:08Z 21° 20' N, 17° 31' W Click for more
84484 CTD/STD cast 1975-01-29 22:39Z 21° 19' N, 17° 23' W Click for more
84496 CTD/STD cast 1975-01-29 23:49Z 21° 19' N, 17° 23' W Click for more
84503 CTD/STD cast 1975-01-30 04:05Z 21° 19' N, 17° 15' W Click for more
84515 CTD/STD cast 1975-01-30 06:55Z 21° 16' N, 17° 4' W Click for more
84527 CTD/STD cast 1975-01-30 20:14Z 20° 35' N, 17° 19' W Click for more
84539 CTD/STD cast 1975-01-30 23:44Z 20° 35' N, 17° 49' W Click for more
84540 CTD/STD cast 1975-01-31 13:57Z 21° 20' N, 17° 35' W Click for more
84552 CTD/STD cast 1975-01-31 17:20Z 21° 40' N, 17° 49' W Click for more
84564 CTD/STD cast 1975-01-31 20:36Z 21° 49' N, 17° 29' W Click for more
84576 CTD/STD cast 1975-01-31 23:22Z 22° 3' N, 17° 44' W Click for more
84588 CTD/STD cast 1975-02-01 02:25Z 22° 9' N, 17° 24' W Click for more
84607 CTD/STD cast 1975-02-01 04:52Z 22° 13' N, 17° 34' W Click for more
84619 CTD/STD cast 1975-02-01 05:24Z 22° 17' N, 17° 43' W Click for more
84620 CTD/STD cast 1975-02-01 07:23Z 22° 24' N, 17° 30' W Click for more
84632 CTD/STD cast 1975-02-01 09:32Z 22° 31' N, 17° 16' W Click for more
84644 CTD/STD cast 1975-02-01 11:56Z 22° 42' N, 17° 31' W Click for more
84656 CTD/STD cast 1975-02-01 14:46Z 22° 53' N, 17° 44' W Click for more
84668 CTD/STD cast 1975-02-01 17:50Z 22° 53' N, 17° 44' W Click for more
84681 CTD/STD cast 1975-02-02 04:05Z 23° 4' N, 18° 16' W Click for more
84693 CTD/STD cast 1975-02-02 19:24Z 22° 55' N, 17° 45' W Click for more
84700 CTD/STD cast 1975-02-02 22:46Z 22° 48' N, 17° 31' W Click for more
84712 CTD/STD cast 1975-02-03 03:04Z 22° 48' N, 17° 12' W Click for more
84724 CTD/STD cast 1975-02-03 04:54Z 22° 43' N, 17° 7' W Click for more
84736 CTD/STD cast 1975-02-03 10:41Z 22° 43' N, 17° 3' W Click for more
84748 CTD/STD cast 1975-02-03 15:53Z 22° 43' N, 16° 54' W Click for more
84761 CTD/STD cast 1975-02-03 22:13Z 22° 40' N, 16° 36' W Click for more
84773 CTD/STD cast 1975-02-04 04:32Z 22° 47' N, 17° 13' W Click for more
84785 CTD/STD cast 1975-02-04 12:20Z 22° 48' N, 17° 30' W Click for more
84797 CTD/STD cast 1975-02-04 13:31Z 22° 48' N, 17° 30' W Click for more
84804 CTD/STD cast 1975-02-04 15:07Z 22° 43' N, 17° 30' W Click for more
84816 CTD/STD cast 1975-02-04 16:31Z 22° 43' N, 17° 30' W Click for more
84828 CTD/STD cast 1975-02-04 18:17Z 22° 43' N, 17° 30' W Click for more
84841 CTD/STD cast 1975-02-04 19:35Z 22° 43' N, 17° 30' W Click for more
84853 CTD/STD cast 1975-02-04 21:15Z 22° 43' N, 17° 30' W Click for more
84865 CTD/STD cast 1975-02-04 22:30Z 22° 43' N, 17° 30' W Click for more
84877 CTD/STD cast 1975-02-05 00:03Z 22° 50' N, 17° 30' W Click for more
84889 CTD/STD cast 1975-02-05 01:42Z 22° 50' N, 17° 30' W Click for more
84890 CTD/STD cast 1975-02-05 03:01Z 22° 50' N, 17° 30' W Click for more
84908 CTD/STD cast 1975-02-05 04:31Z 22° 50' N, 17° 30' W Click for more
84921 CTD/STD cast 1975-02-05 06:02Z 22° 48' N, 17° 32' W Click for more
84933 CTD/STD cast 1975-02-05 07:29Z 22° 48' N, 17° 32' W Click for more
84945 CTD/STD cast 1975-02-05 11:59Z 22° 48' N, 17° 32' W Click for more
84957 CTD/STD cast 1975-02-05 13:30Z 22° 48' N, 17° 34' W Click for more
84969 CTD/STD cast 1975-02-05 15:05Z 22° 48' N, 17° 34' W Click for more
84970 CTD/STD cast 1975-02-05 18:03Z 22° 48' N, 17° 34' W Click for more
84982 CTD/STD cast 1975-02-05 18:59Z 22° 48' N, 17° 34' W Click for more
84994 CTD/STD cast 1975-02-05 19:59Z 22° 48' N, 17° 33' W Click for more
85008 CTD/STD cast 1975-02-05 20:59Z 22° 48' N, 17° 33' W Click for more
85021 CTD/STD cast 1975-02-05 22:00Z 22° 48' N, 17° 33' W Click for more
85033 CTD/STD cast 1975-02-05 23:00Z 22° 48' N, 17° 33' W Click for more
85045 CTD/STD cast 1975-02-06 00:00Z 22° 48' N, 17° 33' W Click for more
85057 CTD/STD cast 1975-02-06 01:10Z 22° 48' N, 17° 33' W Click for more
85069 CTD/STD cast 1975-02-06 02:04Z 22° 48' N, 17° 33' W Click for more
85070 CTD/STD cast 1975-02-06 12:07Z 22° 48' N, 17° 30' W Click for more
85082 CTD/STD cast 1975-02-07 01:11Z 21° 30' N, 18° 42' W Click for more
85094 CTD/STD cast 1975-02-07 10:17Z 21° 28' N, 18° 11' W Click for more
85101 CTD/STD cast 1975-02-07 19:52Z 21° 25' N, 17° 53' W Click for more
85113 CTD/STD cast 1975-02-08 00:02Z 21° 21' N, 17° 40' W Click for more
85125 CTD/STD cast 1975-02-08 12:47Z 21° 20' N, 17° 41' W Click for more
85137 CTD/STD cast 1975-02-08 17:42Z 21° 20' N, 17° 32' W Click for more
85149 CTD/STD cast 1975-02-08 20:46Z 21° 19' N, 17° 22' W Click for more
85150 CTD/STD cast 1975-02-09 02:09Z 21° 19' N, 17° 15' W Click for more
85162 CTD/STD cast 1975-02-09 03:29Z 21° 18' N, 17° 9' W Click for more
85174 CTD/STD cast 1975-02-09 09:29Z 21° 20' N, 17° 41' W Click for more
85186 CTD/STD cast 1975-02-10 12:34Z 21° 21' N, 17° 46' W Click for more
85198 CTD/STD cast 1975-02-10 15:18Z 21° 25' N, 18° 9' W Click for more
85205 CTD/STD cast 1975-02-12 08:21Z 21° 26' N, 18° 10' W Click for more
85217 CTD/STD cast 1975-02-12 11:50Z 21° 36' N, 18° 0' W Click for more
85229 CTD/STD cast 1975-02-12 14:37Z 21° 46' N, 17° 48' W Click for more
85230 CTD/STD cast 1975-02-12 17:49Z 21° 55' N, 17° 36' W Click for more
85242 CTD/STD cast 1975-02-12 20:51Z 22° 6' N, 17° 25' W Click for more
85254 CTD/STD cast 1975-02-12 23:06Z 22° 16' N, 17° 36' W Click for more
85266 CTD/STD cast 1975-02-13 02:24Z 22° 22' N, 17° 21' W Click for more
85278 CTD/STD cast 1975-02-13 05:15Z 22° 29' N, 17° 7' W Click for more
85291 CTD/STD cast 1975-02-13 08:35Z 22° 41' N, 16° 45' W Click for more
85309 CTD/STD cast 1975-02-13 13:58Z 22° 44' N, 17° 7' W Click for more
85310 CTD/STD cast 1975-02-14 02:16Z 22° 47' N, 17° 13' W Click for more
85322 CTD/STD cast 1975-02-14 09:00Z 22° 48' N, 17° 31' W Click for more
85334 CTD/STD cast 1975-02-14 13:37Z 22° 47' N, 17° 28' W Click for more
85346 CTD/STD cast 1975-02-15 03:04Z 22° 54' N, 17° 46' W Click for more
85358 CTD/STD cast 1975-02-15 13:20Z 23° 6' N, 18° 16' W Click for more

Project Database

No data currently held for this cruise in the BODC Project Database

References

Track Charts

No track charts currently available

Reports

No reports currently available